Regional Weather Roundup
Issued by NWS

Home | Current Version | Previous Version | Graphics & Text | Print | Product List | Glossary On
Versions: 1 2 3 4 5 6 7 8 9 10 11 12 13 14 15 16 17 18 19 20 21 22 23 24 25 26 27 28 29 30 31 32 33 34 35 36 37 38 39 40 41 42 43 44 45 46 47 48 49 50
000
ASUS43 KMKX 220400
RWRWI

WISCONSIN REGIONAL WEATHER ROUNDUP
NATIONAL WEATHER SERVICE MILWAUKEE/SULLIVAN WI
1100 PM CDT TUE OCT 21 2014

NOTE: "FAIR" INDICATES FEW OR NO CLOUDS BELOW 12,000 FEET WITH NO
SIGNIFICANT WEATHER AND/OR OBSTRUCTIONS TO VISIBILITY.

WIZ001-002-006>008-014>016-023>028-220500-
NORTHWEST WISCONSIN

CITY           SKY/WX    TMP DP  RH WIND       PRES   REMARKS
SUPERIOR ARPT  FAIR      37  35  93 CALM      30.23S
ASHLAND        CLEAR     31  30  96 W3        30.25S FOG
HAYWARD        CLEAR     42  34  73 SE6       30.23S
SIREN          CLEAR     43  36  75 SE6       30.20F
CUMBERLAND     CLEAR     41  34  75 SE6       30.22S
RICE LAKE      CLEAR     42  36  78 SE7       30.24S
CHETEK         CLEAR     40  36  84 SE6       30.24S
LADYSMITH      CLEAR     41  35  78 SE3       30.27R
EAU CLAIRE     CLEAR     41  34  76 S3        30.24S
MENOMONIE      CLEAR     38  34  84 SE7       30.23S WCI  33
NEW RICHMOND   CLEAR     43  35  75 SE5       30.20S
OSCEOLA        CLEAR     44  37  75 SE8       30.22S
$$

WIZ003>005-009-010-017-018-220500-
NORTH CENTRAL WISCONSIN

CITY           SKY/WX    TMP DP  RH WIND       PRES   REMARKS
MANITOWISH WTR CLEAR     29  29 100 CALM      30.25R FOG
ARBOR VITAE    CLEAR     33  31  94 SE3       30.25S
WOODRUFF       CLEAR     33  31  94 SE3       30.25S
RHINELANDER    CLEAR     35  29  78 SE3       30.27R
EAGLE RIVER    CLEAR     30  30 100 SE3       30.26S FOG
LAND O LAKES   CLEAR     28  28  98 SE3       30.27S
PHILLIPS       CLEAR     30  28  94 CALM      30.25R
TOMAHAWK       CLEAR     29  28  96 CALM      30.27R
MEDFORD        CLEAR     34  32  94 CALM      30.26R
MERRILL        CLEAR     31  30  96 CALM      30.27R
$$

WIZ029-030-035-036-043>047-220500-
CENTRAL WISCONSIN

CITY           SKY/WX    TMP DP  RH WIND       PRES   REMARKS
WAUSAU         CLEAR     37  32  82 E5        30.27R WCI  33
MOSINEE        CLEAR     36  32  87 CALM      30.28R
MARSHFIELD     CLEAR     39  34  82 S3        30.27R
STEVENS POINT  CLEAR     30  29  94 CALM      30.29R
WAUPACA        CLEAR     35  34  94 CALM      30.29S
WAUTOMA        NOT AVBL
WISC RAPIDS    CLEAR     36  33  89 SE6       30.29R WCI  31
CAMP DOUGLAS   NOT AVBL
$$

WIZ011>013-019>022-031-037>040-048>050-220500-
NORTHEAST WISCONSIN

CITY           SKY/WX    TMP DP  RH WIND       PRES   REMARKS
ANTIGO         CLEAR     35  32  89 SE7       30.28R WCI  29
SHAWANO        CLEAR     39  36  86 CALM      30.30R
OCONTO         CLEAR     32  32 100 CALM      30.30S
STURGEON BAY   CLEAR     39  34  81 NE5       30.30S
GREEN BAY      CLEAR     34  33  96 CALM      30.30R
MANITOWOC      NOT AVBL
APPLETON       CLEAR     39  32  75 VRB5      30.29R
CLINTONVILLE   CLEAR     34  32  93 CALM      30.29S
OSHKOSH        CLEAR     36  34  92 CALM      30.28S
$$

WIZ032>034-041-042-053>061-220500-
SOUTHWEST WISCONSIN

CITY           SKY/WX    TMP DP  RH WIND       PRES   REMARKS
LA CROSSE      CLEAR     45  36  70 E3        30.26R
SPARTA         CLEAR     32  31  95 CALM      30.27S
VIROQUA        CLEAR     38  36  89 SE5       30.25S WCI  35
BOSCOBEL       CLEAR     36  33  89 CALM      30.28R FOG
PRAIRIE DU CHI CLEAR     43  35  75 E6        30.26S
PLATTEVILLE    CLEAR     38  35  89 CALM      30.27R
$$

WIZ056-057-062-063-064-067-068-220500-
SOUTH CENTRAL WISCONSIN

CITY           SKY/WX    TMP DP  RH WIND       PRES   REMARKS
REEDSBURG      CLEAR     34  33  96 CALM      30.27S
BARABOO/DELLS  CLEAR     33  32  94 CALM      30.27S
LONE ROCK      NOT AVBL
MINERAL POINT  CLEAR     39  36  87 E5        30.26S
MADISON        CLEAR     33  31  92 CALM      30.29S FOG
MIDDLETON      CLEAR     34  34 100 CALM      30.28S
WATERTOWN      PTCLDY    33  33 100 CALM      30.28S
MONROE         CLEAR     39  36  87 NE5       30.27S
JANESVILLE     CLEAR     37  36  93 CALM      30.28S
$$

WIZ051-052-058>065-066-070>072-220500-
SOUTHEAST WISCONSIN

CITY           SKY/WX    TMP DP  RH WIND       PRES   REMARKS
MILWAUKEE      CLEAR     44  36  73 NE9       30.27F
WAUKESHA       CLEAR     32  32 100 CALM      30.29S
MILWAUKEE/TIMM CLEAR     34  32  93 CALM      30.28F
RACINE         CLEAR     43  37  79 NE7       30.28F
BURLINGTON     PTCLDY    29  29  99 CALM      30.28S FOG
KENOSHA        MOCLDY    36  34  92 CALM      30.27S
FOND DU LAC    CLEAR     34  32  92 CALM      30.29R
SHEBOYGAN      CLEAR     33  31  92 CALM      30.28F
WEST BEND      CLEAR     32  32 100 CALM      30.28S
JUNEAU         PTCLDY    37  34  90 CALM      30.29S
$$

LSZ147-162-220500-
LAKE SUPERIOR

STATION/POSITION TIME  TEMP    WIND        PRES    WAVE
                       AIR SEA DIR/SP/G            HT/PER
                 (UTC) (F)     (DEG/KT/KT) (MB)    (FT/S)
W MID LAKE BUOY  0250   44 46  120/ 14/ 16 1025.3R   2/ 4
DEVILS ISLAND    0300   45     110/ 11/ 13 1025.1R
PORT WING        0300   40      CALM  /  3 1024.0R
SAXON HARBOR     0340   32        CALM     1024.0S
$$

LMZ867-665-643>646-220500-
LAKE MICHIGAN

STATION/POSITION TIME  TEMP    WIND        PRES    WAVE
                       AIR SEA DIR/SP/G            HT/PER
                 (UTC) (F)     (DEG/KT/KT) (MB)    (FT/S)
CHAMBERS ISLAND  0300   44      30/ 12/ 15 1026.4R
N MID LAKE BUOY  0250   45 51   50/ 12/ 14 1026.5R   2/ 4
NORTHPORT PIER   0300   42      30/  7/  9 1026.1R
SISTER BAY       0212           60/  4/  7   N/A
KEWAUNEE LAKESHO 0300   46      60/  6/ 10 1024.7R
SHEBOYGAN LAKESH 0300   47 49   50/ 16/ 18 1026.2R
PORT WASHINGTON  0300   42     340/  4/  6 1026.1S
ATWATER BUOY     0300   49      40/ 16/ 19 1026.2R
MILWAUKEE LAKESH 0300   48      40/ 14/ 17   N/A
S MID LAKE BUOY  0250   49 54   20/ 14/ 16 1024.9R   5/ 6
KENOSHA   LAKESH 0300   48      40/ 13/ 16 1024.7S
$$

TC  - TEMPERATURE IN CELSIUS
VSB - VISIBILITY IN STATUTE MILES
WCI - WIND CHILL INDEX
HX  - HEAT INDEX




USA.gov is the U.S. government's official web portal to all federal, state and local government web resources and services.